Other Public Products
Issued by NWS Charleston, SC

Current Version | Previous Version | Graphics & Text | Print | Product List | Glossary On
Versions: 1 2 3 4 5 6 7 8 9 10 11 12 13 14 15 16 17 18 19 20 21 22 23 24 25 26 27 28 29 30 31 32 33 34 35 36 37 38 39 40 41 42 43 44 45 46 47 48 49 50
000
FPUS82 KCHS 191727
OPUCHS

TEST...KCHS/KSAV Gateway Observations...TEST
National Weather Service Charleston SC
1200 PM EST SUN NOV 19 2017

NOTE: "fair" indicates few or no clouds below 12,000 feet with no
significant weather and/or obstructions to visibility.

SCZ050-WAZ558-NCZ071-TXZ119-213-PAZ071-DCZ001-FLZ074-172-MI076-
NYZ176-178-MAZ016-IL014-TNZ027-NJZ106-GAZ044-MD014-191800-

...Gateway Observations for Charleston International...

CITY           SKY/WX    TMP DP  RH WIND       PRES   REMARKS
Chas Airport   MOSUNNY   65  46  50 NW13G22   29.85F
Seattle        CLOUDY    46  28  49 SE12      29.92F
Charlotte      MOSUNNY   57  29  34 NW12G20   29.89F
Dallas DFW     MOSUNNY   57  32  38 VRB5      30.37F
Dallas Love    PTSUNNY   58  32  37 NE8       30.38F
Philladelphia  PTSUNNY   53  30  41 NW22G41   29.60R
Wash National  PTSUNNY   51  30  44 NW21G30   29.75R
Baltimore      PTSUNNY   51  32  48 W29G40    29.69S
Miami          MOSUNNY   81  63  54 W7        29.96F
Detroit        FLURRIES  36  28  73 W17G28    29.85S WCI  26
Newark         PTSUNNY   51  30  44 NW24G40   29.50R
Laguardia      PTSUNNY   51  31  46 NW29G40   29.48R
J F K          PTSUNNY   52  32  46 W36G47    29.48R
Boston Logan   LGT RAIN  50  42  74 W30G43    29.17
Ft. Lauderdale MOSUNNY   80  62  54 W8        29.94F
Chicago O`Hare MOSUNNY   31  19  61 W15       30.04R WCI  20
Chicago Midway MOSUNNY   33  21  61 W16       30.05R WCI  23
Houston Bush   MOSUNNY   62  32  32 NE18      30.34F
Houston Hobby  MOSUNNY   61  33  35 NE16G22   30.33F
Nashville      MOSUNNY   45  25  45 NW13G20   30.17R
Atlanta        MOSUNNY   52  36  54 NW14      30.03F

$$

GAZ044-118-TXZ119-213-NCZ071-DCZ001-MDZ014-506-PAZ021-071-NJZ106-
NYZ176-178-MAZ106-OHZ011-021-055-MIZ076-KYZ091-ILZ014-INZ047-
MNZ060-ONZ431-191800-

...Gateway Observations for Savannah International...

CITY           SKY/WX    TMP DP  RH WIND       PRES   REMARKS
Savannah Arpt  MOSUNNY   64  43  46 NW15G24   29.92F
Atlanta        MOSUNNY   52  36  54 NW14      30.03F
Charlotte      MOSUNNY   57  29  34 NW12G20   29.89F
Dallas DFW     MOSUNNY   57  32  38 VRB5      30.37F
Houston Bush   MOSUNNY   62  32  32 NE18      30.34F
Wash National  PTSUNNY   51  30  44 NW21G30   29.75R
Wash Dulles    PTSUNNY   48  31  51 W24G36    29.75R
Baltimore      PTSUNNY   51  32  48 W29G40    29.69S
Philadelphia   PTSUNNY   53  30  41 NW22G41   29.60R
Newark         PTSUNNY   51  30  44 NW24G40   29.50R
Laguardia      PTSUNNY   51  31  46 NW29G40   29.48R
J F K          PTSUNNY   52  32  46 W36G47    29.48R
Boston         LGT RAIN  50  42  74 W30G43    29.17
Pittsburg      PTSUNNY   37  28  70 W24G31    29.81R WCI  26
Akron          CLOUDY    39  26  59 W16G25    29.82F WCI  30
Cleveland      FLURRIES  38  30  73 W16G24    29.86S WCI  29
Cincinnati     CLOUDY    36  28  73 NW20      30.04R WCI  25
Columbus       CLOUDY    40  32  74 W20G28    29.94S WCI  30
Detroit        FLURRIES  36  28  73 W17G28    29.85S WCI  26
Chicago O`Hare MOSUNNY   31  19  61 W15       30.04R WCI  20
Minneapolis    PTSUNNY   28  15  58 SW7       30.05F WCI  21
Indianapolis   CLOUDY    33  24  69 W16       30.07S WCI  23
Toronto Canada PTSUNNY   39  27  60 NW24G33   29.63S WCI  28

$$




USA.gov is the U.S. government's official web portal to all federal, state and local government web resources and services.